SCULL ISLAND AK US NWS current weather conditions

sailwx.info

Wind from 240 at 7 knots gusting 8

Air temperature 1.9° C

Last reported at 2020-Apr-05 05:32 UTC.
Time now 2020-Apr-05 06:12 UTC

Location: N 58°12' W 134°39'.
View on Google Maps.

See reports from other nearby stations

  
Tides and Currents Weather Stations Pressure Air Temp Water Temp Dewpoint Dewpoint Depression Visibility Wind Speed Wind Dir Waves Ship Positions
date/time (UTC)wind fromknots sea level pressurealtimeterstation pressurevisibilityair tempwater tempwave heightnotes
2020-Apr-05 05:32 240 7 gusting 8 1.9
2020-Apr-05 05:22 240 7 gusting 8 2.0
2020-Apr-05 05:12 240 7 gusting 8 2.0
2020-Apr-05 05:02 240 7 gusting 8 2.2
2020-Apr-05 04:53 250 8 gusting 9 2.4
2020-Apr-05 04:42 240 8 gusting 11 2.5
2020-Apr-05 04:32 230 7 gusting 8 2.7
2020-Apr-05 04:23 230 7 gusting 8 2.8
2020-Apr-05 04:12 230 6 gusting 8 3.1
2020-Apr-05 04:02 250 6 gusting 7 3.2
2020-Apr-05 03:52 270 5 gusting 6 3.4
2020-Apr-05 03:42 280 2 gusting 5 3.7
2020-Apr-05 03:32 280 2 gusting 4 3.6
2020-Apr-05 03:22 280 2 gusting 4 3.7
2020-Apr-05 03:12 290 2 gusting 6 3.7
2020-Apr-05 03:02 290 4 gusting 4 4.0
2020-Apr-05 02:52 300 4 gusting 5 4.1
2020-Apr-05 02:42 320 4 gusting 5 4.4
2020-Apr-05 02:32 320 2 gusting 4 4.4
2020-Apr-05 02:22 310 4 gusting 5 4.3
2020-Apr-05 02:12 300 2 gusting 4 4.2
2020-Apr-05 02:03 290 4 gusting 5 4.1
2020-Apr-05 01:52 330 6 gusting 6 4.0
2020-Apr-05 01:42 340 6 gusting 6 4.0
2020-Apr-05 01:33 330 6 gusting 6 4.0
2020-Apr-05 01:23 340 6 gusting 6 4.0
2020-Apr-05 01:13 340 6 gusting 7 4.0
2020-Apr-05 01:02 360 7 gusting 9 4.1
2020-Apr-05 00:52 360 8 gusting 9 4.1
2020-Apr-05 00:42 360 8 gusting 9 4.1
2020-Apr-05 00:32 360 8 gusting 9 4.1
2020-Apr-05 00:22 360 7 gusting 8 4.2
2020-Apr-05 00:12 360 7 gusting 9 4.0
2020-Apr-04 23:52 350 7 gusting 9 3.8
2020-Apr-04 23:42 350 7 gusting 11 3.7
2020-Apr-04 23:32 350 7 gusting 9 3.6
2020-Apr-04 23:22 350 6 gusting 8 3.6
2020-Apr-04 23:12 350 7 gusting 9 3.4
2020-Apr-04 23:02 350 7 gusting 9 3.3
2020-Apr-04 22:52 350 8 gusting 9 3.2
2020-Apr-04 22:42 350 8 gusting 11 3.1
2020-Apr-04 22:32 350 9 gusting 12 2.9
2020-Apr-04 22:23 360 9 gusting 12 2.7
2020-Apr-04 22:13 360 9 gusting 12 2.6
2020-Apr-04 22:03 360 9 gusting 11 2.5
2020-Apr-04 21:52 360 9 gusting 12 2.5
2020-Apr-04 21:42 360 11 gusting 12 2.4
2020-Apr-04 21:32 360 11 gusting 13 2.3
2020-Apr-04 21:22 360 13 gusting 13 2.1
2020-Apr-04 21:12 360 13 gusting 14 2.0
2020-Apr-04 21:03 360 12 gusting 13 1.8
2020-Apr-04 20:53 360 11 gusting 13 1.7
2020-Apr-04 20:42 350 8 gusting 12 1.8
2020-Apr-04 20:32 360 7 gusting 8 1.9
2020-Apr-04 20:22 360 7 gusting 8 1.7
2020-Apr-04 20:12 360 6 gusting 8 1.6
2020-Apr-04 20:02 360 8 gusting 11 1.3
2020-Apr-04 19:52 360 8 gusting 11 1.2
2020-Apr-04 19:42 360 9 gusting 11 1.1
2020-Apr-04 19:33 360 8 gusting 12 0.9
2020-Apr-04 19:23 360 9 gusting 12 0.8
2020-Apr-04 19:13 360 9 gusting 12 0.6
2020-Apr-04 19:02 360 8 gusting 11 0.4
2020-Apr-04 18:52 360 7 gusting 11 0.4
2020-Apr-04 18:42 360 7 gusting 9 0.3
2020-Apr-04 18:32 360 6 gusting 9 0.2
2020-Apr-04 18:22 360 6 gusting 7 0.2
2020-Apr-04 18:12 350 5 gusting 6 0.2
2020-Apr-04 18:02 350 6 gusting 6 0.1
2020-Apr-04 17:52 350 5 gusting 6 0.1
2020-Apr-04 17:42 340 5 gusting 6 -0.0
2020-Apr-04 17:32 300 1 gusting 4 -0.0
2020-Apr-04 17:22 320 2 gusting 5 -0.1
2020-Apr-04 17:12 340 2 gusting 5 -0.1
2020-Apr-04 17:02 360 4 gusting 6 -0.1
2020-Apr-04 16:52 350 5 gusting 6 -0.2
2020-Apr-04 16:42 340 5 gusting 6 -0.2
2020-Apr-04 16:32 340 4 gusting 6 -0.2
2020-Apr-04 16:23 330 4 gusting 6 -0.5
2020-Apr-04 16:13 310 4 gusting 6 -0.7
2020-Apr-04 16:02 310 2 gusting 6 -0.7
2020-Apr-04 15:52 290 1 gusting 4 -0.8
2020-Apr-04 15:42 280 2 gusting 5 -0.9
2020-Apr-04 15:32 280 2 gusting 5 -1.0
2020-Apr-04 15:22 260 2 gusting 6 -1.3
2020-Apr-04 15:13 250 6 gusting 8 -1.6
2020-Apr-04 15:03 260 6 gusting 8 -1.4
2020-Apr-04 14:52 250 7 gusting 11 -1.4
2020-Apr-04 14:42 240 7 gusting 11 -1.4
2020-Apr-04 14:32 260 6 gusting 9 -1.3
2020-Apr-04 14:12 300 6 gusting 11 -1.3
2020-Apr-04 14:02 260 6 gusting 9 -1.4
2020-Apr-04 13:52 260 6 gusting 9 -1.1
2020-Apr-04 13:43 300 6 gusting 8 -1.3
2020-Apr-04 13:33 310 6 gusting 8 -1.4
2020-Apr-04 13:13 320 6 gusting 9 -1.3
2020-Apr-04 13:03 330 7 gusting 9 -1.3
2020-Apr-04 12:52 330 7 gusting 9 -1.2
2020-Apr-04 12:42 340 6 gusting 8 -1.1
2020-Apr-04 12:32 340 7 gusting 9 -1.1
2020-Apr-04 12:22 340 6 gusting 9 -1.0
2020-Apr-04 12:12 340 6 gusting 8 -1.1
2020-Apr-04 12:02 330 5 gusting 6 -1.1
2020-Apr-04 11:52 320 6 gusting 7 -1.0
2020-Apr-04 11:42 320 6 gusting 7 -0.8
2020-Apr-04 11:32 320 4 gusting 6 -0.8
2020-Apr-04 11:22 310 4 gusting 6 -0.7
2020-Apr-04 11:12 310 4 gusting 6 -0.7
2020-Apr-04 11:02 310 6 gusting 8 -0.6
2020-Apr-04 10:52 310 6 gusting 7 -0.5
2020-Apr-04 10:42 330 6 gusting 7 -0.5
2020-Apr-04 10:32 320 5 gusting 7 -0.5
2020-Apr-04 10:23 310 5 gusting 7 -0.5
2020-Apr-04 10:13 300 6 gusting 8 -0.4
2020-Apr-04 10:02 290 5 gusting 7 -0.4
2020-Apr-04 09:52 300 6 gusting 8 -0.4
2020-Apr-04 09:42 300 6 gusting 7 -0.4
2020-Apr-04 09:32 320 6 gusting 7 -0.3
2020-Apr-04 09:22 340 5 gusting 6 -0.3
2020-Apr-04 09:12 340 5 gusting 8 -0.3
2020-Apr-04 09:02 330 5 gusting 8 -0.4
2020-Apr-04 08:53 330 2 gusting 6 -0.5
2020-Apr-04 08:43 260 0 gusting 4 -0.6
2020-Apr-04 08:32 130 1 gusting 4 -0.6
2020-Apr-04 08:13 110 2 gusting 6 -0.6
2020-Apr-04 08:02 -0.7
2020-Apr-04 07:52 170 1 gusting 2 -0.8
2020-Apr-04 07:42 150 4 gusting 5 -0.8
2020-Apr-04 07:33 150 4 gusting 6 -0.9
2020-Apr-04 07:13 130 4 gusting 5 -1.0
2020-Apr-04 07:02 120 2 gusting 5 -1.0
2020-Apr-04 06:53 110 1 gusting 4 -0.9
2020-Apr-04 06:42 110 2 gusting 5 -0.9
2020-Apr-04 06:32 140 4 gusting 5 -0.9
2020-Apr-04 06:22 110 4 gusting 5 -0.8
2020-Apr-04 06:12 120 5 gusting 6 -0.8
2020-Apr-04 06:02 130 6 gusting 7 -0.8
2020-Apr-04 05:52 130 6 gusting 8 -0.8
2020-Apr-04 05:42 120 6 gusting 8 -0.9
2020-Apr-04 05:32 110 7 gusting 9 -0.9
2020-Apr-04 05:22 110 7 gusting 9 -1.0
2020-Apr-04 05:12 110 7 gusting 11 -1.0
2020-Apr-04 05:02 100 8 gusting 11 -0.9
2020-Apr-04 04:42 100 9 gusting 13 -1.0
2020-Apr-04 04:32 100 11 gusting 13 -1.0
2020-Apr-04 04:23 100 11 gusting 13 -1.0
2020-Apr-04 04:13 080 11 gusting 13 -1.0
2020-Apr-04 04:02 070 12 gusting 15 -0.9
2020-Apr-04 03:52 080 13 gusting 17 -0.9
2020-Apr-04 03:42 090 14 gusting 17 -1.0
2020-Apr-04 03:32 090 15 gusting 18 -0.9
2020-Apr-04 03:22 090 17 gusting 20 -0.8
2020-Apr-04 03:12 090 18 gusting 22 -0.9
2020-Apr-04 03:02 090 19 gusting 24 -1.0
2020-Apr-04 02:42 090 18 gusting 20 -1.2
2020-Apr-04 02:32 100 19 gusting 26 -1.2
2020-Apr-04 02:22 100 19 gusting 25 -1.2
2020-Apr-04 02:12 100 19 gusting 21 -1.3
2020-Apr-04 02:03 100 20 gusting 25 -1.3
2020-Apr-04 01:52 100 20 gusting 22 -1.4
2020-Apr-04 01:42 100 20 gusting 22 -1.4
2020-Apr-04 01:32 100 21 gusting 27 -1.5
2020-Apr-04 01:23 100 21 gusting 24 -1.5
2020-Apr-04 01:13 100 20 gusting 29 -1.4
2020-Apr-04 01:02 100 20 gusting 27 -1.5
2020-Apr-04 00:52 100 21 gusting 24 -1.5
2020-Apr-04 00:42 100 21 gusting 26 -1.6
2020-Apr-04 00:32 100 21 gusting 25 -1.6
2020-Apr-04 00:22 100 22 gusting 27 -1.7
2020-Apr-04 00:12 100 22 gusting 28 -1.7
2020-Apr-03 23:52 100 21 gusting 25 -1.8
2020-Apr-03 23:42 100 21 gusting 26 -1.9
2020-Apr-03 23:33 100 22 gusting 25 -2.0
2020-Apr-03 23:12 100 22 gusting 27 -2.1
2020-Apr-03 23:02 110 22 gusting 26 -2.2
2020-Apr-03 22:52 110 21 gusting 25 -2.1
2020-Apr-03 22:42 110 21 gusting 25 -2.2
2020-Apr-03 22:32 100 22 gusting 26 -2.3
2020-Apr-03 22:22 100 21 gusting 24 -2.1
2020-Apr-03 22:13 100 21 gusting 25 -2.2
2020-Apr-03 22:03 100 22 gusting 26 -2.2
2020-Apr-03 21:53 100 22 gusting 27 -2.1
2020-Apr-03 21:42 100 22 gusting 26 -2.1
2020-Apr-03 21:32 100 22 gusting 27 -2.0
2020-Apr-03 21:23 100 21 gusting 26 -1.7
2020-Apr-03 21:12 100 21 gusting 26 -1.6
2020-Apr-03 21:02 110 20 gusting 25 -1.4
2020-Apr-03 20:52 110 20 gusting 25 -1.4
2020-Apr-03 20:43 120 18 gusting 22 -1.4
2020-Apr-03 20:33 120 17 gusting 22 -1.2
2020-Apr-03 20:22 130 15 gusting 21 -1.0
2020-Apr-03 20:13 120 13 gusting 19 -0.8
2020-Apr-03 20:03 110 13 gusting 18 -0.5
2020-Apr-03 19:52 120 13 gusting 19 -0.6
2020-Apr-03 19:42 140 13 gusting 15 -0.4
2020-Apr-03 19:33 150 12 gusting 15
2020-Apr-03 19:23 160 12 gusting 14
2020-Apr-03 19:13 140 13 gusting 18
2020-Apr-03 19:03 140 11 gusting 17
2020-Apr-03 18:52 100 13 gusting 19
2020-Apr-03 18:43 100 14 gusting 19
2020-Apr-03 18:33 110 14 gusting 19
2020-Apr-03 18:22 110 14 gusting 18
2020-Apr-03 18:12 110 15 gusting 19
2020-Apr-03 18:02 120 13 gusting 18
2020-Apr-03 17:53 110 17 gusting 20
2020-Apr-03 17:43 110 18 gusting 20
2020-Apr-03 17:32 110 19 gusting 24
2020-Apr-03 17:22 110 19 gusting 21
2020-Apr-03 17:12 110 18 gusting 20
2020-Apr-03 17:02 110 19 gusting 21
2020-Apr-03 16:52 120 19 gusting 22
2020-Apr-03 16:42 120 20 gusting 22
2020-Apr-03 16:32 120 19 gusting 21
2020-Apr-03 16:23 110 18 gusting 24
2020-Apr-03 16:13 110 17 gusting 20
2020-Apr-03 16:02 120 14 gusting 20
2020-Apr-03 15:52 130 13 gusting 19
2020-Apr-03 15:43 130 14 gusting 18
2020-Apr-03 15:33 120 17 gusting 20
2020-Apr-03 15:23 110 18 gusting 22
2020-Apr-03 15:13 130 14 gusting 19
2020-Apr-03 15:02 140 13 gusting 15
2020-Apr-03 14:52 130 13 gusting 15
2020-Apr-03 14:43 130 14 gusting 17
2020-Apr-03 14:32 130 15 gusting 19
2020-Apr-03 14:22 130 14 gusting 19
2020-Apr-03 14:12 130 13 gusting 18
2020-Apr-03 14:02 130 11 gusting 13
2020-Apr-03 13:52 130 11 gusting 13
2020-Apr-03 13:42 130 13 gusting 15
2020-Apr-03 13:32 130 13 gusting 17
2020-Apr-03 13:22 130 13 gusting 17
2020-Apr-03 13:13 130 12 gusting 15
2020-Apr-03 13:02 130 12 gusting 13
2020-Apr-03 12:53 120 11 gusting 14 -1.2
2020-Apr-03 12:42 140 11 gusting 13 -1.4
2020-Apr-03 11:22 170 6 gusting 9 -1.4
2020-Apr-03 11:12 170 6 gusting 7 -1.4
2020-Apr-03 11:02 180 6 gusting 8 -1.4
2020-Apr-03 10:52 160 6 gusting 8 -1.4
2020-Apr-03 10:42 150 6 gusting 8 -1.1
2020-Apr-03 10:32 160 4 gusting 6 -1.0
2020-Apr-03 10:23 200 4 gusting 6 -0.9
2020-Apr-03 10:13 190 5 gusting 6 -0.8
2020-Apr-03 10:02 150 6 gusting 6 -0.7
2020-Apr-03 09:52 150 6 gusting 6 -1.0
2020-Apr-03 09:42 170 6 gusting 6
2020-Apr-03 09:32 180 6 gusting 6 -1.2
2020-Apr-03 09:22 180 6 gusting 6 -0.8
2020-Apr-03 09:12 180 6 gusting 7 -0.7
2020-Apr-03 09:03 160 7 gusting 8
2020-Apr-03 08:53 140 7 gusting 9
2020-Apr-03 08:42 130 7 gusting 9
2020-Apr-03 08:33 150 6 gusting 8
2020-Apr-03 08:23 150 6 gusting 6 -0.5
2020-Apr-03 08:12 160 4 gusting 6 -0.1
2020-Apr-03 08:02 150 2 gusting 4 -0.2
2020-Apr-03 07:52 130 2 gusting 4 -0.3
2020-Apr-03 07:42 150 2 gusting 4 -0.3
2020-Apr-03 07:33 180 2 gusting 5 -0.3
2020-Apr-03 07:23 190 4 gusting 6 -0.2
2020-Apr-03 07:13 210 6 gusting 7 -0.2
2020-Apr-03 07:02 210 6 gusting 8 -0.2
2020-Apr-03 06:52 210 7 gusting 9 -0.2
2020-Apr-03 06:42 210 7 gusting 8 0.1
2020-Apr-03 06:32 210 6 gusting 7 0.2
2020-Apr-03 06:22 200 6 gusting 7 0.2
2020-Apr-03 06:12 150 6 gusting 7
2020-Apr-03 06:02 130 6 gusting 7